Regional Weather Roundup
Issued by NWS Wakefield, VA

Home | Current Version | Previous Version | Text Only | Print | Product List | Glossary Off
Versions: 1 2 3 4 5 6 7 8 9 10 11 12 13 14 15 16 17 18 19 20 21 22 23 24 25 26 27 28

000
ASUS41 KAKQ 150715
RWRAKQ

REGIONAL WEATHER ROUNDUP
NATIONAL WEATHER SERVICE WAKEFIELD VA
200 AM EST MON JAN 15 2018

Note: "fair" indicates few or no clouds below 12,000 feet with no
significant weather and/or obstructions to visibility. * = Denotes
station may not report precipitation (e.g., rain,snow,etc.),
thunder or fog.

VAZ042-051-052>054-056-150800-
NORTHERN VIRGINIA

CITY           SKY/WX    TMP DP  RH WIND       PRES   REMARKS
WASH NATIONAL  CLOUDY    19   6  57 N9        30.65S
DULLES         MOCLDY    15   5  64 N6        30.62F
FORT BELVOIR   FAIR      16   6  62 NW3       30.64S
QUANTICO       FAIR      17   9  70 NW6       30.65F
FREDERICKSBRG* FAIR      18   8  64 N6        30.62F
STAFFORD*      FAIR      16   6  66 N6        30.66F
WARRENTON      FAIR      15   3  59 N3        30.61F
CULPEPER*      FAIR      12   4  70 N3        30.63S
MANASSAS*      FAIR      13   6  74 N6        30.64F
LEESBURG*      FAIR      18   9  68 NE3       30.63F
WINCHESTER     FAIR      12   5  73 CALM      30.58S
FRONT ROYAL*   FAIR      12   7  79 MISG      30.56F
LURAY*         FAIR      14   9  79 NE3       30.55F
$$

VAZ048-049-060>072-079>083-150800-
CENTRAL AND SOUTH CENTRAL VIRGINIA

CITY           SKY/WX    TMP DP  RH WIND       PRES   REMARKS
RICHMOND       FAIR      19   9  65 N8        30.58F
CHESTERFIELD*  NOT AVBL
PETERSBURG*    FAIR      19   7  58 N5        30.58F
HANOVER        FAIR      18   7  62 VRB3      30.60F
TAPPAHANNOCK*  FAIR      19  13  79 N3        30.60F
QUINTON*       FAIR      18   9  68 N3        30.58F
CHARLOTTSVILLE FAIR      17   3  54 NE6       30.57F
GORDONSVILLE*  FAIR      15   4  60 MISG      30.59F
ORANGE*        FAIR      16   5  62 CALM      30.60F
LOUISA*        FAIR      15   3  59 N5        30.63S
BUMPASS*       FAIR      17   3  54 CALM      30.60S
FARMVILLE*     FAIR      16   7  66 N3        30.57S
CREWE*         FAIR      17   5  61 CALM      30.56F
FORT PICKETT*  FAIR      16   5  61 N6        30.56S
CHASE CITY*    FAIR      17   4  57 N3        30.55F
CLARKSVILLE*   FAIR      19   5  53 CALM      30.55F
SOUTH HILL*    FAIR      17   7  64 N7        30.60F
LAWRENCEVILLE* FAIR      18   6  61 N3        30.55F
EMPORIA*       CLOUDY    21  10  63 N5        30.57F
$$

VAZ088>098-150800-
SOUTHEAST VIRGINIA

CITY           SKY/WX    TMP DP  RH WIND       PRES   REMARKS
NORFOLK        CLOUDY    29  20  69 N17G25    30.52F WCI  17
VIRGINIA BEACH FAIR      27  16  63 N8        30.51F
NORFOLK NAVAL  CLOUDY    29  17  61 N15G24    30.53F WCI  18
WEST POINT*    FAIR      18  10  73 N3        30.60F
SALUDA*        FAIR      21  13  70 N6        30.58F
NEWPORT NEWS   FAIR      22  13  68 N7        30.55F
LANGLEY AFB    MOCLDY    25  16  66 N14       30.53F WCI  14
FORT EUSTIS    MOCLDY    22  12  64 N8        30.52F
WILLIAMSBURG*  MOCLDY    21  14  73 N8        30.57F
HR EXEC AP*    CLOUDY    26  18  71 N6        30.53F
FRANKLIN*      CLOUDY    23  12  62 N5        30.55F
US460-WAKEFLD  CLOUDY    21  12  68 VRB5      30.55F
$$

VAZ020-022-025-037-045-150800-
WEST CENTRAL AND SOUTHWEST VIRGINIA

CITY           SKY/WX    TMP DP  RH WIND       PRES   REMARKS
STAUNTON*      FAIR       8   4  84 CALM      30.55R
WAYNESBORO*    FAIR      11   2  67 CALM      30.49F
HOT SPRINGS VA FAIR       8  -1  67 E7        30.27F
LYNCHBURG      FAIR      16   3  56 NE7       30.53F
DANVILLE       FAIR      16   6  65 NE6       30.55F
SOUTH BOSTON*  FAIR      17   3  53 N3        30.56F
MARTINSVILLE   FAIR      15   4  63 CALM      30.57R
ROANOKE        FAIR      16   6  65 S6        30.53S
BLACKSBURG     FAIR      15   4  62 SE3       30.46S
DUBLIN*        FAIR      16   7  66 E3        30.44S
MARION*        FAIR      16   7  67 E7        30.39S
HILLSVILLE*    FAIR      13   6  73 S5        30.36F
RICHLANDS*     FAIR      19   8  62 SE7       30.30F
WISE*          FAIR      21  14  73 S7        30.31R
ABINGDON*      FAIR      20  12  72 E9        30.36S
$$

MDZ021>025-VAZ099-100-150800-
SOUTHERN MARYLAND AND THE DELMARVA PENINSULA

CITY           SKY/WX    TMP DP  RH WIND       PRES   REMARKS
PATUXENT RIVER FAIR      22  10  60 NE10      30.61S WCI  11
BAY BRIDGE APT FAIR      19   7  58 N5        30.64S
LEONARDTOWN    FAIR      21  10  63 CALM      30.62F
DOVER          MOCLDY    19  11  71 N9        30.61S
GEORGETOWN     CLOUDY    19   9  65 NW5       30.60S
EASTON         FAIR      19   9  64 CALM      30.66S
CAMBRIDGE        N/A     19   9  63 N7        30.62S
SALISBURY      FAIR      18   9  68 N6        30.59S
OCEAN CITY     MOCLDY    21  11  65 NW9       30.58S
WALLOPS ISLAND FAIR      21   9  59 N12       30.57F WCI   9
ACCOMACK*      FAIR      22  12  64 N10       30.56F WCI  11
$$

NCZ012>017-030>032-150800-
NORTH CENTRAL AND EASTERN NORTH CAROLINA

CITY           SKY/WX    TMP DP  RH WIND       PRES   REMARKS
ROANOKE RAPIDS CLOUDY    23  12  63 N3        30.54F
RALEIGH        FAIR      20   4  50 NE8       30.53F
ELIZABETH CITY CLOUDY    27  21  78 N16       30.50F WCI  15
AHOSKIE*       CLOUDY    23  12  62 N8        30.53F
EDENTON*       CLOUDY    28  19  69 N10       30.50F WCI  19
CURRITUCK*     CLOUDY    27  21  78 N13G18    30.50F WCI  16
KILL DEVIL HLS CLOUDY    34  31  86 N13G25    30.43F
MANTEO         CLOUDY    34  31  88 NE22G28   30.44F WCI  22
CAPE HATTERAS  NOT AVBL
TARBORO*       NOT AVBL
GOLDSBORO      CLOUDY    25  11  54 N9        30.50F
WASHINGTON     CLOUDY    27  16  62 N9        30.49F
GREENVILLE     CLOUDY    27  14  59 N3        30.52S
NEW BERN       CLOUDY    27  18  69 N12       30.49S WCI  17
WILMINGTON     FAIR      26  15  63 N7        30.47F
$$

VAZ048-150800-
ELSEWHERE

CITY           SKY/WX    TMP DP  RH WIND       PRES   REMARKS
HARRISBURG PA  MOCLDY    15   7  70 CALM      30.64R
BALTIMORE      FAIR      16   7  67 N5        30.63S
ANNAPOLIS      FAIR      22  13  68 N6        30.63S
ANDREWS AFB    FAIR      14   6  69 N7        30.61S
PHILADELPHIA   MOCLDY    18   1  47 NE10      30.65S WCI   6
HENDERSON NC   FAIR      16   2  54 NE6       30.53S
GREENSBORO     FAIR      19   5  54 NE6       30.50S
ROCKY MOUNT    CLOUDY    22  10  60 N8        30.53S
$$

VAZ100-150800-
MARINE

STATION/POSITION TIME  TEMP    WIND        PRES    WAVE   SWELL
                       AIR SEA DIR/SP/G            HT/PER HT/PER
                 (UTC) (F)     (DEG/KT/KT) (MB)    (FT/S) (FT/S)
BRANDYWINE LGT   0642   22      30/ 21/ 24 1036.6R
CAPE MAY NJ      0648   20 33   10/  4/  8 1035.8F
LEWES DE         0648   24 33   20/ 17/ 19 1036.1R
15NM E FENWICK I 0550   33 42   20/ 14/ 17 1035.3    5/ 6   3/10
OCEAN-CITY-INLET 0648   24 33  340/  9/ 11 1035.7S
WACHAPREAGUE VA  0648   21 33  320/  6/ 12 1034.6F
THOMAS POINT MD  0700   23 32   50/ 12/ 12   N/A
GOOSES REEF MD   0700   24 34   80/ 12/ 14 1037.2    1/ 3
COVE POINT MD    0648   23      50/ 10/ 13 1037.3S
SOLOMONS ISLAND  0648   23 34   20/  5/  8 1036.4F
BISHOPS HEAD MD  0648   20 30  350/  5/  8 1036.5F
PINEY POINT MD   0648           40/  5/  6   N/A
POTOMAC MD       0700   25 34  100/ 14/ 16 1035.5    0
CAMBRIDGE MD     0642   20 31              1037.7R
LEWISETTA VA     0648   24 33   50/  7/ 12 1036.3F
RAPPAHANNOCK LGT 0648           10/ 23/ 24 1035.1F
STINGRAY PT      0700   26 35   50/ 16/ 17 1036.5    2/ 3
YORK RVR RNG VA  0648   26      20/ 18/ 20 1034.7F
YORKTOWN VA      0648   22 35  340/  8/ 10 1034.5F
DOMINION TERM VA 0648   26      50/  2/  6 1034.0F
KIPTOPEKE VA     0648      36   10/ 11/ 13   N/A
CAPE HENRY VA    0648          360/ 19/ 22   N/A
WILLOUBY STN VA  0642           10/ 19/ 22 1033.6F
S CRANEY ISL VA  0648   28      20/ 17/ 19 1033.9F
CAPE HENRY BUOY  0630      42                N/A     5/ 7
1ST LANDING BUOY 0700   28 35   30/ 21/ 25 1033.2    3/ 3
CAPE CHARLES BUO 0651      39                N/A     5/ 9   2/11
64NM E OF VA BCH 0650   47 65   20/ 19/ 23 1030.4F   7/ 7   3/ 9
DUCK PIER NC     0648   33 40   10/ 25/ 28 1030.7F
44100 DUCK FRF   0645      44                N/A     8/ 7   2/11
44056 DUCK FRF   0630      43                N/A     8/ 6   2/11
OREGON INLET NC  0642   38 42  350/ 17/ 25 1030.1F
HATTERAS NC      0648   38 43  360/ 25/ 28 1029.0F
DIAMOND SHLS NC  0650   48 69  360/ 27/ 35 1027.6F   9/ 6
CAPE LOOKOUT NC  0700          350/ 18/ 21 1030.2F
$$




USA.gov is the U.S. government's official web portal to all federal, state and local government web resources and services.